Mason City, IA

10:06 PM CST on February 17, 2018 (GMT -0600)
Mason City Municipal

Weather History for KMCW - May, 2014

Change the Weather History Date:

Sunday, May 25, 2014

  Actual Average Record
Temperature  
Mean Temperature 65 °F 61 °F  
Max Temperature 77 °F 73 °F 94 °F (1967)
Min Temperature 52 °F 50 °F 29 °F (1925)
Degree Days  
Heating Degree Days 0 5  
Month to date heating degree days 247 209  
Since 1 July heating degree days 8610 7609  
Cooling Degree Days 0 1  
Month to date cooling degree days 7 17  
Year to date cooling degree days 7 22  
Growing Degree Days 14 (Base 50)    
Moisture  
Dew Point 57 °F    
Average Humidity 77    
Maximum Humidity 93    
Minimum Humidity 60    
Precipitation  
Precipitation 0.00 in 0.16 in 2.08 in (1904)
Month to date precipitation 2.10 3.73  
Year to date precipitation 13.81 11.53  
Snow  
Snow 0.00 in 0.00 in - ()
Month to date snowfall 0.0 0.1  
Since 1 July snowfall 58.0 41.3  
Snow Depth 0.00 in    
Sea Level Pressure  
Sea Level Pressure 30.01 in    
Wind  
Wind Speed 12 mph (SSE)    
Max Wind Speed 22 mph    
Max Gust Speed 29 mph    
Visibility 10 miles    
Events      
T = Trace of Precipitation, MM = Missing Value Source: NWS Daily Summary

Daily Weather History Graph

Daily Weather History Graph

Search for Another Location

Airport or City:

Trip Planner

Search our weather history database for the weather conditions in past years. The results will help you decide how hot, cold, wet, or windy it might be!

Date:

Astronomy

May. 25, 2014 Rise Set
Actual Time 5:40 AM CDT 8:40 PM CDT
Civil Twilight 5:06 AM CDT 9:14 PM CDT
Nautical Twilight 4:23 AM CDT 9:57 PM CDT
Astronomical Twilight 3:32 AM CDT 10:49 PM CDT
Moon 3:51 AM CDT (5/25) 5:36 PM CDT (5/25)
Length of Visible Light 16h 07m
Length of Day
14h 59m
Waning Crescent, 10% of the Moon is Illuminated
May 25
Waning Crescent
May 28
New
Jun 5
First Quarter
Jun 12
Full
Jun 19
Last Quarter

Hourly Weather History & Observations

Time (CDT) Temp. Dew Point Humidity Pressure Visibility Wind Dir Wind Speed Gust Speed Precip Events Conditions
12:53 AM 55.4 °F 46.4 °F 72% 30.10 in 10.0 mi South 6.9 mph - N/A   Clear
1:53 AM 55.9 °F 46.9 °F 72% 30.07 in 10.0 mi South 8.1 mph - N/A   Clear
2:53 AM 54.0 °F 46.0 °F 75% 30.07 in 10.0 mi SSE 5.8 mph - N/A   Clear
3:53 AM 55.4 °F 46.4 °F 72% 30.09 in 10.0 mi SSE 5.8 mph - N/A   Clear
4:53 AM 52.0 °F 46.0 °F 80% 30.06 in 10.0 mi SE 5.8 mph - N/A   Clear
5:53 AM 55.0 °F 48.0 °F 77% 30.05 in 10.0 mi ESE 8.1 mph - N/A   Clear
6:53 AM 57.0 °F 48.9 °F 74% 30.04 in 10.0 mi SE 6.9 mph - N/A   Clear
7:53 AM 63.0 °F 51.1 °F 65% 30.05 in 10.0 mi SE 8.1 mph - N/A   Partly Cloudy
8:53 AM 69.1 °F 55.9 °F 63% 30.05 in 10.0 mi South 17.3 mph - N/A   Partly Cloudy
9:53 AM 69.8 °F 57.2 °F 64% 30.07 in 10.0 mi SSE 15.0 mph - N/A   Overcast
10:53 AM 71.1 °F 59.0 °F 66% 30.04 in 10.0 mi South 11.5 mph 21.9 mph N/A   Overcast
11:53 AM 73.0 °F 59.0 °F 61% 30.02 in 10.0 mi SSE 16.1 mph - N/A   Overcast
12:53 PM 75.0 °F 61.0 °F 62% 30.01 in 10.0 mi SSE 18.4 mph 27.6 mph N/A   Overcast
1:53 PM 73.0 °F 62.1 °F 68% 30.00 in 10.0 mi South 16.1 mph - N/A   Overcast
2:23 PM 75.9 °F 62.1 °F 62% 30.01 in 10.0 mi SSE 15.0 mph - N/A   Overcast
2:49 PM 75.2 °F 60.8 °F 61% 30.00 in 10.0 mi SE 19.6 mph 28.8 mph N/A   Scattered Clouds
2:53 PM 75.9 °F 61.0 °F 60% 29.98 in 10.0 mi SSE 21.9 mph 27.6 mph N/A   Scattered Clouds
3:53 PM 75.0 °F 61.0 °F 62% 29.97 in 10.0 mi SSE 16.1 mph 24.2 mph N/A   Mostly Cloudy
4:35 PM 75.9 °F 62.1 °F 62% 29.98 in 10.0 mi South 11.5 mph 24.2 mph N/A   Mostly Cloudy
4:53 PM 75.0 °F 62.1 °F 64% 29.96 in 10.0 mi South 17.3 mph - N/A   Mostly Cloudy
5:20 PM 73.9 °F 63.0 °F 68% 29.98 in 10.0 mi South 9.2 mph - N/A   Mostly Cloudy
5:53 PM 73.9 °F 62.1 °F 66% 29.94 in 10.0 mi South 15.0 mph - N/A   Overcast
6:53 PM 75.0 °F 63.0 °F 66% 29.94 in 10.0 mi South 13.8 mph - N/A   Overcast
7:53 PM 73.0 °F 63.0 °F 71% 29.93 in 10.0 mi South 15.0 mph - N/A   Partly Cloudy
8:53 PM 71.1 °F 63.0 °F 75% 29.94 in 10.0 mi South 8.1 mph - N/A   Clear
9:53 PM 68.0 °F 63.0 °F 84% 29.96 in 10.0 mi South 8.1 mph - N/A   Clear
10:53 PM 66.9 °F 63.0 °F 87% 29.97 in 9.0 mi South 4.6 mph - N/A   Mostly Cloudy
11:53 PM 64.9 °F 62.1 °F 90% 29.94 in 8.0 mi South 8.1 mph - N/A   Scattered Clouds